When you browse on this site, cookies collect data to enhance your experience and personalize the content and advertising you see.
Visit our Privacy Policy to learn more. By continuing to use the site, you agree to this use of cookies and data.
  • In Portugal
  • List of Countries
  • For 7 days
  • Water Temperature
  • Weather Map
  • Weather Widgets
  • user-avatar
    Login

    Hourly Weather Mieres

    Today, 20 November, Wednesday

    Time Temperature Precipitation Wind Pressure Humidity
    00:00 +6°C° 0.2 mm 2 mps 711 mmHg 90%
    01:00 +6°C° 0 mm 2 mps 710 mmHg 90%
    02:00 +5°C° 0 mm 2 mps 710 mmHg 91%
    03:00 +5°C° 0 mm 2 mps 709 mmHg 91%
    04:00 +5°C° 0 mm 2 mps 709 mmHg 91%
    05:00 +5°C° 0 mm 2 mps 708 mmHg 91%
    06:00 +5°C° 0 mm 2 mps 708 mmHg 91%
    07:00 +6°C° 0 mm 2 mps 708 mmHg 90%
    08:00 +6°C° 0 mm 2 mps 708 mmHg 89%
    09:00 +7°C° 0 mm 2 mps 708 mmHg 88%
    10:00 +7°C° 0.1 mm 2 mps 708 mmHg 86%
    11:00 +8°C° 0.1 mm 2 mps 707 mmHg 84%
    12:00 +9°C° 0.1 mm 2 mps 707 mmHg 82%
    13:00 +9°C° 0 mm 2 mps 707 mmHg 82%
    14:00 +9°C° 0 mm 2 mps 706 mmHg 82%
    15:00 +9°C° 0 mm 2 mps 706 mmHg 83%
    16:00 +8°C° 0.2 mm 2 mps 706 mmHg 85%
    17:00 +7°C° 0.2 mm 2 mps 706 mmHg 87%
    18:00 +6°C° 0.2 mm 2 mps 706 mmHg 90%
    19:00 +6°C° 0 mm 2 mps 706 mmHg 90%
    20:00 +5°C° 0 mm 2 mps 706 mmHg 91%
    21:00 +5°C° 0 mm 2 mps 706 mmHg 91%
    22:00 +5°C° 0 mm 2 mps 706 mmHg 90%
    23:00 +5°C° 0 mm 2 mps 706 mmHg 89%

    Tomorrow, 21 November, Thursday

    Time Temperature Precipitation Wind Pressure Humidity
    00:00 +5°C° 0 mm 2 mps 706 mmHg 88%
    01:00 +5°C° 0.1 mm 2 mps 706 mmHg 88%
    02:00 +5°C° 0.1 mm 2 mps 706 mmHg 88%
    03:00 +5°C° 0.1 mm 2 mps 706 mmHg 87%
    04:00 +4°C° 0 mm 2 mps 706 mmHg 88%
    05:00 +4°C° 0 mm 2 mps 706 mmHg 88%
    06:00 +3°C° 0 mm 2 mps 706 mmHg 88%
    07:00 +3°C° 0 mm 3 mps 706 mmHg 86%
    08:00 +3°C° 0 mm 3 mps 707 mmHg 84%
    09:00 +4°C° 0 mm 3 mps 707 mmHg 82%
    10:00 +5°C° 0 mm 3 mps 707 mmHg 78%
    11:00 +7°C° 0 mm 3 mps 707 mmHg 74%
    12:00 +9°C° 0 mm 3 mps 707 mmHg 70%
    13:00 +9°C° 0 mm 2 mps 707 mmHg 71%
    14:00 +8°C° 0 mm 2 mps 706 mmHg 72%
    15:00 +8°C° 0 mm 2 mps 706 mmHg 73%
    16:00 +7°C° 0 mm 2 mps 706 mmHg 76%
    17:00 +6°C° 0 mm 2 mps 706 mmHg 79%
    18:00 +5°C° 0 mm 2 mps 706 mmHg 83%
    19:00 +5°C° 0 mm 2 mps 706 mmHg 83%
    20:00 +5°C° 0 mm 2 mps 705 mmHg 84%
    21:00 +4°C° 0 mm 3 mps 705 mmHg 84%
    22:00 +5°C° 0 mm 3 mps 705 mmHg 85%
    23:00 +6°C° 0 mm 2 mps 704 mmHg 85%

    Day after tomorrow, 22 November, Friday

    Time Temperature Precipitation Wind Pressure Humidity
    00:00 +6°C° 0 mm 2 mps 704 mmHg 85%
    01:00 +5°C° 0.5 mm 3 mps 703 mmHg 87%
    02:00 +5°C° 0.5 mm 3 mps 702 mmHg 89%
    03:00 +5°C° 0.5 mm 3 mps 701 mmHg 91%
    04:00 +5°C° 1.5 mm 3 mps 699 mmHg 91%
    05:00 +6°C° 1.5 mm 4 mps 698 mmHg 92%
    06:00 +6°C° 1.5 mm 4 mps 697 mmHg 92%
    07:00 +6°C° 0.4 mm 4 mps 697 mmHg 92%
    08:00 +7°C° 0.4 mm 4 mps 696 mmHg 91%
    09:00 +8°C° 0.4 mm 3 mps 695 mmHg 91%
    10:00 +9°C° 1.3 mm 3 mps 695 mmHg 90%
    11:00 +9°C° 1.3 mm 3 mps 695 mmHg 90%
    12:00 +10°C° 1.3 mm 3 mps 694 mmHg 89%
    13:00 +10°C° 0.1 mm 3 mps 694 mmHg 88%
    14:00 +10°C° 0.1 mm 3 mps 694 mmHg 86%
    15:00 +10°C° 0.1 mm 3 mps 693 mmHg 84%
    16:00 +9°C° 0.9 mm 3 mps 694 mmHg 87%
    17:00 +8°C° 0.9 mm 3 mps 694 mmHg 90%
    18:00 +7°C° 0.9 mm 2 mps 694 mmHg 93%
    19:00 +7°C° 2.1 mm 3 mps 695 mmHg 94%
    20:00 +7°C° 2.1 mm 3 mps 696 mmHg 95%
    21:00 +7°C° 2.1 mm 3 mps 696 mmHg 96%
    22:00 +5°C° 2 mm 3 mps 697 mmHg 95%
    23:00 +5°C° 2 mm 3 mps 698 mmHg 95%

    23 November, Saturday

    Time Temperature Precipitation Wind Pressure Humidity
    00:00 +5°C° 2 mm 3 mps 699 mmHg 95%
    01:00 +5°C° 0.9 mm 4 mps 699 mmHg 94%
    02:00 +4°C° 0.9 mm 4 mps 700 mmHg 94%
    03:00 +4°C° 0.9 mm 4 mps 701 mmHg 93%
    04:00 +4°C° 0.2 mm 4 mps 702 mmHg 93%
    05:00 +4°C° 0.2 mm 4 mps 702 mmHg 93%
    06:00 +4°C° 0.2 mm 4 mps 703 mmHg 93%
    07:00 +5°C° 0.5 mm 4 mps 704 mmHg 94%
    08:00 +5°C° 0.5 mm 4 mps 705 mmHg 94%
    09:00 +5°C° 0.5 mm 4 mps 706 mmHg 94%
    10:00 +5°C° 0.6 mm 4 mps 706 mmHg 92%
    11:00 +5°C° 0.6 mm 5 mps 707 mmHg 91%
    12:00 +6°C° 0.6 mm 5 mps 708 mmHg 89%
    13:00 +5°C° 0.4 mm 4 mps 708 mmHg 89%
    14:00 +5°C° 0.4 mm 4 mps 709 mmHg 90%
    15:00 +5°C° 0.4 mm 4 mps 709 mmHg 90%
    16:00 +5°C° 0.2 mm 3 mps 710 mmHg 91%
    17:00 +5°C° 0.2 mm 3 mps 710 mmHg 92%
    18:00 +6°C° 0.2 mm 2 mps 711 mmHg 93%
    19:00 +5°C° 0.1 mm 2 mps 712 mmHg 93%
    20:00 +5°C° 0.1 mm 2 mps 713 mmHg 92%
    21:00 +5°C° 0.1 mm 2 mps 713 mmHg 92%
    22:00 +5°C° 0 mm 2 mps 713 mmHg 91%
    23:00 +5°C° 0 mm 2 mps 714 mmHg 91%

    24 November, Sunday

    Time Temperature Precipitation Wind Pressure Humidity
    00:00 +5°C° 0 mm 2 mps 714 mmHg 91%
    01:00 +4°C° 0 mm 2 mps 714 mmHg 90%
    02:00 +4°C° 0 mm 2 mps 714 mmHg 89%
    03:00 +4°C° 0 mm 2 mps 714 mmHg 88%
    04:00 +4°C° 0 mm 2 mps 714 mmHg 87%
    05:00 +5°C° 0 mm 1 mps 715 mmHg 86%
    06:00 +5°C° 0 mm 1 mps 715 mmHg 84%
    07:00 +4°C° 0 mm 2 mps 715 mmHg 83%
    08:00 +5°C° 0 mm 2 mps 716 mmHg 81%
    09:00 +5°C° 0 mm 2 mps 716 mmHg 80%
    10:00 +7°C° 0 mm 2 mps 716 mmHg 76%
    11:00 +8°C° 0 mm 2 mps 716 mmHg 73%
    12:00 +10°C° 0 mm 2 mps 716 mmHg 70%
    13:00 +9°C° 0 mm 2 mps 715 mmHg 72%
    14:00 +9°C° 0 mm 2 mps 715 mmHg 75%
    15:00 +8°C° 0 mm 3 mps 714 mmHg 78%
    16:00 +8°C° 0.1 mm 3 mps 714 mmHg 80%
    17:00 +8°C° 0.1 mm 3 mps 714 mmHg 83%
    18:00 +8°C° 0.1 mm 3 mps 715 mmHg 86%
    19:00 +8°C° 0 mm 3 mps 714 mmHg 86%
    20:00 +8°C° 0 mm 3 mps 714 mmHg 87%
    21:00 +8°C° 0 mm 3 mps 714 mmHg 87%
    22:00 +8°C° 0 mm 3 mps 714 mmHg 87%
    23:00 +8°C° 0 mm 3 mps 715 mmHg 86%

    25 November, Monday

    Time Temperature Precipitation Wind Pressure Humidity
    00:00 +9°C° 0 mm 3 mps 715 mmHg 85%
    01:00 +9°C° 0 mm 3 mps 714 mmHg 85%
    02:00 +9°C° 0 mm 3 mps 714 mmHg 86%
    03:00 +9°C° 0 mm 3 mps 714 mmHg 86%
    04:00 +9°C° 0 mm 3 mps 714 mmHg 87%
    05:00 +9°C° 0 mm 3 mps 714 mmHg 88%
    06:00 +9°C° 0 mm 3 mps 714 mmHg 88%
    07:00 +9°C° 0 mm 3 mps 714 mmHg 88%
    08:00 +9°C° 0 mm 2 mps 715 mmHg 87%
    09:00 +10°C° 0 mm 2 mps 715 mmHg 87%
    10:00 +12°C° 0 mm 2 mps 715 mmHg 85%
    11:00 +13°C° 0 mm 2 mps 715 mmHg 83%
    12:00 +14°C° 0 mm 2 mps 715 mmHg 81%
    13:00 +13°C° 0 mm 2 mps 715 mmHg 83%
    14:00 +13°C° 0 mm 2 mps 714 mmHg 85%
    15:00 +12°C° 0 mm 2 mps 714 mmHg 88%
    16:00 +12°C° 0 mm 2 mps 714 mmHg 90%
    17:00 +11°C° 0 mm 1 mps 714 mmHg 92%
    18:00 +11°C° 0 mm 1 mps 715 mmHg 94%
    19:00 +10°C° 0 mm 1 mps 715 mmHg 94%
    20:00 +9°C° 0 mm 2 mps 715 mmHg 94%
    21:00 +9°C° 0 mm 2 mps 715 mmHg 95%
    22:00 +8°C° 0 mm 2 mps 715 mmHg 94%
    23:00 +8°C° 0 mm 2 mps 715 mmHg 93%
    Show more